Wetbulb
58.05 57.51 57.38 57.40 57.53 57.89 57.91 57.59 57.64 57.43 57.24 57.56 57.55 57.98 58.12 58.48 58.78 59.46 54.61 59.25 61.66 64.82 66.33 63.26 62.40 65.07 66.23 65.62 67.89 68.56 61.67 58.46 56.72 56.46 59.78 64.40 64.12 67.19 67.98 66.43 66.16 67.48 66.75 68.87 71.48
58.58 58.26 57.66 57.49 57.49 57.96 58.09 57.78 57.97 57.90 57.67 57.31 57.19 57.89 58.60 58.76 58.52 54.92 61.60 60.87 63.83 67.10 61.25 60.31 59.12 63.21 65.25 62.77 64.47 66.24 63.04 59.92 63.42 60.99 61.39 63.74 64.82 65.09 64.51 65.02 65.26 65.81 68.61 70.39 71.27
58.78 58.14 57.48 57.40 57.80 57.40 57.25 57.71 57.47 57.14 57.37 57.15 57.51 58.23 58.87 59.71 56.58 57.74 67.77 64.36 65.88 65.84 58.72 60.47 61.14 63.88 61.63 63.49 62.68 63.64 61.85 63.96 64.06 61.86 63.60 64.07 63.97 65.98 63.97 62.57 65.38 65.32 67.36 69.17 69.79
58.54 58.17 57.49 57.22 57.34 57.95 57.53 57.60 57.24 57.13 56.97 57.16 57.45 58.21 59.62 59.73 51.33 59.24 69.64 67.62 67.79 62.84 57.94 59.06 60.56 62.65 61.22 60.92 62.26 61.47 64.95 64.69 64.08 63.90 63.12 62.56 64.91 64.00 63.86 64.87 67.14 68.37 68.85 68.82 68.57
58.16 58.11 57.43 57.27 57.24 57.57 57.79 57.44 56.49 56.65 56.83 57.22 57.90 58.43 59.50 56.23 55.98 65.52 69.08 67.79 62.85 57.63 56.57 57.89 60.31 61.14 60.56 59.96 63.22 60.93 64.04 65.63 65.88 64.89 64.29 64.46 63.49 64.08 64.44 67.20 67.40 67.82 67.84 67.99 68.56
57.76 57.86 57.11 56.35 56.31 56.97 56.81 56.21 56.22 56.31 56.55 57.09 58.14 58.94 57.68 53.82 63.34 66.24 65.24 60.41 57.61 56.79 55.63 59.25 59.26 61.81 59.74 62.32 63.77 65.31 65.13 65.47 65.51 64.48 62.88 61.51 62.15 63.90 65.67 67.22 66.21 66.68 67.66 69.02 69.25
57.51 57.49 56.52 56.21 55.90 55.77 55.65 55.27 55.16 55.68 56.46 57.55 58.46 60.37 55.74 57.69 64.90 63.85 60.80 58.23 57.39 56.46 54.51 57.05 60.81 60.85 59.59 63.82 67.33 66.16 62.60 64.51 63.92 64.52 62.83 62.43 58.10 60.15 66.28 67.27 66.26 66.62 67.81 68.63 69.54
57.14 57.16 57.20 56.90 56.72 55.62 55.16 54.64 55.18 55.90 56.35 57.87 59.26 60.41 55.59 59.60 62.89 61.50 62.30 60.74 58.57 57.88 56.44 57.30 57.86 59.70 62.65 67.63 65.05 62.33 62.75 58.55 61.16 63.09 63.07 61.30 54.69 61.04 65.81 66.20 65.67 66.58 67.34 68.24 69.33
56.91 57.01 56.87 56.65 55.93 55.75 54.77 55.17 57.37 57.05 57.85 59.14 61.29 59.36 55.61 60.76 58.71 61.28 61.94 58.23 57.80 57.99 57.15 54.87 56.50 58.82 64.88 62.40 59.81 60.47 56.98 57.29 58.13 63.09 61.13 58.69 55.59 61.06 65.07 65.02 65.21 66.62 67.27 68.03 68.93
56.99 56.79 56.57 55.99 55.09 54.89 54.72 55.62 58.20 59.40 60.64 61.72 61.06 57.59 58.09 56.34 58.85 60.39 61.76 56.85 53.09 54.01 53.08 56.13 57.19 57.17 61.57 59.13 52.08 55.49 56.13 57.84 58.01 59.33 60.32 56.54 57.20 60.29 62.80 62.58 64.09 66.45 67.12 67.74 68.26
56.93 56.52 56.34 55.07 54.32 53.83 55.40 60.26 60.12 59.29 60.52 56.61 56.29 55.52 57.02 60.18 58.47 58.61 58.83 54.17 53.50 52.92 51.76 55.15 53.88 52.26 56.75 57.35 57.87 58.46 56.70 56.40 59.31 61.39 57.74 55.93 56.60 58.90 61.61 62.14 62.43 64.84 66.76 67.49 68.16
56.64 56.38 55.72 54.13 53.91 53.99 57.83 58.71 57.49 58.12 55.24 57.98 57.99 58.16 59.51 60.46 55.11 57.22 60.13 53.72 51.74 49.76 52.96 53.44 51.16 55.07 56.08 56.27 55.61 57.52 55.55 56.40 57.94 59.18 59.08 58.28 56.95 60.26 61.02 61.10 61.74 65.30 65.58 67.38 68.32
55.82 55.96 54.42 53.71 53.81 56.59 59.42 58.40 60.62 60.26 56.13 56.11 58.15 57.25 57.54 59.16 54.64 55.50 58.16 54.75 52.30 50.78 51.34 50.68 53.18 55.03 54.57 53.72 53.16 54.28 53.66 55.51 55.44 58.50 59.08 56.49 57.04 57.46 60.12 61.62 63.20 64.37 66.54 66.93 68.31
55.37 54.68 53.74 52.78 55.02 60.06 59.52 60.97 61.48 60.60 53.02 52.24 54.83 56.85 57.61 56.90 52.85 57.63 58.65 55.24 52.61 50.29 51.65 52.08 54.28 53.72 53.51 53.16 54.49 52.42 55.20 56.59 55.80 56.11 51.31 57.46 49.89 53.88 58.71 58.86 62.05 63.39 66.83 66.42 67.68
54.31 53.87 52.94 51.87 58.75 58.90 59.08 61.41 62.25 59.63 44.13 51.76 53.76 59.71 56.82 54.25 54.44 54.20 57.42 55.17 50.75 50.96 51.66 50.13 51.43 50.94 50.78 52.93 54.56 53.27 57.40 57.21 56.52 56.63 54.22 54.67 51.04 55.71 60.36 57.62 59.62 62.31 66.19 67.34 68.48
53.99 52.99 52.54 56.54 59.78 60.31 61.47 60.87 59.79 50.70 41.43 48.99 53.29 52.84 53.13 53.97 53.20 54.71 54.45 55.94 54.87 51.09 51.66 50.89 53.45 52.70 52.06 54.23 53.32 58.25 57.28 57.35 57.72 55.78 49.59 53.54 52.91 54.59 57.02 59.90 59.89 61.72 65.18 67.48 67.99
52.43 51.42 53.05 58.98 58.84 61.47 61.42 59.45 51.10 45.79 50.10 48.44 49.79 51.80 52.42 51.92 51.82 52.69 51.61 50.47 50.59 47.79 48.08 49.84 50.37 53.54 56.35 53.38 54.23 57.32 55.44 49.26 47.79 48.09 48.60 54.70 53.33 54.22 58.82 62.31 63.96 62.36 63.64 66.38 68.53
51.15 50.56 55.37 59.90 62.26 61.10 60.44 55.71 45.06 46.84 48.03 51.46 51.49 51.50 50.30 51.81 51.72 51.79 50.73 49.48 51.82 51.07 49.99 47.03 44.95 52.98 57.30 55.01 52.82 53.71 53.85 47.41 42.66 45.42 48.35 53.56 50.16 53.95 60.33 62.52 65.30 65.96 66.23 65.11 68.21
50.59 59.92 60.91 61.87 61.64 60.66 57.77 49.20 49.22 48.43 50.11 49.57 51.54 50.33 50.33 51.83 52.01 51.62 51.82 50.98 52.81 54.05 50.06 48.89 47.06 53.51 56.85 57.66 57.82 54.09 51.71 54.95 49.46 52.32 49.33 51.87 53.88 58.22 59.86 61.55 63.49 63.98 66.12 65.17 67.32
58.81 60.65 60.40 61.96 61.88 60.35 55.50 47.14 50.13 52.31 51.13 51.66 48.19 50.71 48.64 50.25 50.53 51.01 51.37 53.65 52.61 54.45 55.69 52.51 47.68 51.72 53.66 57.34 58.00 57.51 58.04 50.68 50.71 44.07 43.26 49.03 50.49 51.62 56.66 59.57 61.56 61.51 64.04 66.66 68.01
59.87 56.06 60.45 61.97 61.94 58.27 51.75 50.87 51.63 53.87 53.45 50.11 49.60 49.69 50.68 49.99 51.15 50.50 51.01 53.68 54.70 53.94 55.48 54.23 51.70 50.90 53.16 53.31 52.99 53.96 54.04 54.57 53.72 49.62 45.52 46.20 49.03 60.10 59.41 61.85 61.23 59.98 63.46 66.13 66.75
56.55 52.06 61.31 62.01 55.39 57.31 52.88 52.74 50.69 52.57 53.05 52.01 51.87 50.37 50.46 51.21 50.19 49.63 49.36 52.34 55.38 55.13 51.74 54.53 51.80 48.41 49.91 54.27 55.43 55.56 54.20 54.45 48.57 48.60 50.80 49.16 49.84 62.02 62.51 62.48 63.91 61.76 61.68 63.63 66.64
53.18 57.96 61.74 60.18 51.77 52.58 53.96 52.51 53.02 52.09 52.05 50.99 50.43 51.98 52.60 50.81 48.62 50.77 51.72 55.15 55.63 54.46 53.42 54.65 50.82 46.41 48.08 51.66 54.81 53.15 55.19 55.58 53.84 52.64 49.38 46.20 48.81 62.33 63.12 63.03 64.22 63.87 62.82 63.06 63.99
54.51 51.83 57.31 58.12 57.42 54.27 52.73 52.35 51.76 53.78 52.71 51.92 51.34 53.36 52.41 50.66 52.01 50.05 50.58 53.71 55.31 55.12 54.54 56.14 51.76 49.08 45.77 47.66 51.58 50.96 53.66 55.57 53.68 48.88 48.97 48.35 49.95 57.52 60.74 62.19 62.95 64.35 65.33 64.02 65.88
55.15 53.68 55.73 51.87 52.98 54.17 54.82 53.36 50.88 49.80 51.95 53.26 51.50 51.52 51.04 49.02 49.82 49.38 50.64 51.08 53.37 55.19 55.24 53.54 48.78 50.50 50.84 51.06 51.53 51.22 53.23 53.58 53.30 53.02 50.64 51.37 51.56 54.70 60.40 61.96 62.33 63.97 65.24 65.19 65.33
54.30 55.26 59.02 57.39 55.75 55.33 50.62 52.80 51.45 51.12 51.70 50.50 50.91 51.44 52.22 51.07 51.30 49.18 50.84 51.14 49.68 54.42 53.14 53.66 49.54 50.22 48.15 50.46 51.42 49.98 52.63 53.79 54.53 55.07 55.48 55.23 55.18 61.56 62.90 62.59 62.62 63.07 63.85 64.47 66.31
56.33 58.09 56.54 52.29 55.73 54.63 53.66 52.71 52.65 52.81 52.30 53.38 52.58 52.09 51.27 52.36 53.89 55.31 55.34 53.76 54.00 52.40 51.20 51.12 49.28 48.19 44.72 50.04 50.17 47.87 51.41 53.01 53.98 56.63 56.37 53.51 58.37 61.33 60.93 61.81 60.01 60.98 61.74 61.99 63.76
MSLP
1018.20 1018.00 1017.79 1017.56 1017.32 1017.14 1016.97 1016.82 1016.64 1016.43 1016.23 1016.01 1015.81 1015.57 1015.34 1015.03 1014.27 1013.49 1011.52 1011.00 1010.80 1011.17 1011.15 1010.23 1009.79 1009.27 1008.87 1008.36 1008.64 1009.67 1009.62 1009.71 1010.91 1011.57 1011.45 1011.43 1010.46 1010.73 1010.79 1010.86 1010.92 1011.33 1011.42 1013.04 1014.22
1018.17 1017.96 1017.73 1017.52 1017.26 1017.06 1016.89 1016.72 1016.54 1016.36 1016.10 1015.85 1015.65 1015.40 1015.13 1014.88 1013.41 1011.66 1010.90 1011.12 1011.29 1011.17 1010.34 1009.61 1009.00 1008.85 1007.88 1007.86 1008.10 1008.11 1008.77 1009.35 1010.31 1011.70 1011.68 1011.45 1010.89 1010.96 1010.88 1010.96 1011.40 1011.50 1012.27 1013.69 1014.54
1018.18 1017.94 1017.70 1017.48 1017.23 1017.01 1016.83 1016.61 1016.41 1016.25 1015.97 1015.73 1015.49 1015.19 1014.90 1014.50 1012.20 1010.27 1010.88 1011.12 1011.27 1010.98 1010.03 1009.38 1008.83 1008.41 1007.41 1007.49 1007.64 1008.10 1008.65 1009.50 1010.57 1011.54 1011.91 1011.62 1011.25 1010.83 1010.66 1010.69 1011.10 1011.74 1012.65 1013.69 1014.31
1018.21 1017.89 1017.62 1017.43 1017.15 1016.86 1016.67 1016.42 1016.22 1016.04 1015.83 1015.59 1015.34 1015.05 1014.65 1013.50 1010.75 1010.30 1010.84 1011.02 1011.15 1010.47 1009.84 1009.19 1008.70 1007.86 1007.11 1006.88 1007.58 1007.68 1008.98 1009.49 1010.56 1011.43 1012.18 1012.23 1011.78 1011.12 1010.84 1010.85 1010.96 1011.73 1012.74 1013.46 1014.04
1018.22 1017.90 1017.59 1017.30 1017.09 1016.76 1016.50 1016.28 1016.09 1015.86 1015.65 1015.41 1015.16 1014.92 1014.04 1011.77 1010.52 1010.32 1010.88 1011.14 1010.74 1010.22 1009.35 1008.79 1008.25 1007.58 1006.90 1007.26 1007.62 1007.68 1009.04 1009.77 1011.04 1011.77 1012.81 1012.95 1012.85 1012.32 1011.42 1011.41 1011.61 1012.26 1013.03 1013.44 1013.88
1018.22 1017.87 1017.54 1017.29 1017.00 1016.59 1016.31 1016.14 1015.90 1015.70 1015.44 1015.28 1015.00 1014.78 1013.06 1010.54 1010.68 1010.56 1010.50 1010.61 1010.22 1009.74 1009.29 1008.83 1008.05 1008.06 1007.47 1007.43 1007.34 1008.30 1009.07 1009.80 1010.99 1012.15 1013.10 1013.55 1013.83 1013.04 1012.19 1011.85 1012.22 1012.74 1013.09 1013.45 1013.85
1018.19 1017.80 1017.47 1017.19 1016.84 1016.53 1016.20 1015.95 1015.70 1015.51 1015.25 1015.07 1014.87 1014.03 1011.77 1010.90 1010.62 1010.59 1010.33 1010.14 1010.23 1009.75 1009.17 1009.16 1008.66 1008.18 1007.77 1007.44 1008.09 1008.40 1008.99 1010.11 1011.20 1012.40 1013.40 1014.23 1014.57 1013.64 1012.66 1012.42 1012.57 1012.90 1013.17 1013.46 1013.88
1018.15 1017.75 1017.38 1017.03 1016.72 1016.34 1015.95 1015.67 1015.34 1015.12 1014.99 1014.85 1014.70 1013.33 1010.86 1010.90 1010.72 1010.59 1010.30 1010.34 1010.40 1010.14 1009.68 1009.59 1009.13 1008.10 1007.55 1007.75 1007.84 1007.74 1008.41 1009.73 1012.13 1012.81 1014.17 1014.44 1014.48 1014.38 1013.78 1013.07 1012.66 1012.84 1013.11 1013.56 1013.90
1018.02 1017.66 1017.33 1016.83 1016.53 1016.13 1015.75 1015.29 1014.80 1014.76 1014.72 1014.55 1013.81 1012.21 1010.22 1011.35 1010.50 1009.90 1009.97 1009.67 1010.00 1010.02 1009.93 1009.77 1009.14 1007.81 1007.76 1006.92 1006.72 1007.54 1007.32 1009.42 1012.05 1013.11 1014.26 1015.01 1014.97 1014.94 1014.70 1014.05 1012.77 1012.84 1012.94 1013.30 1013.66
1017.92 1017.48 1017.21 1016.73 1016.38 1016.04 1015.57 1015.09 1014.72 1014.53 1014.32 1013.62 1012.74 1011.37 1009.94 1009.60 1009.79 1010.00 1010.07 1009.87 1009.57 1009.57 1009.47 1009.12 1008.37 1007.42 1006.78 1006.26 1005.03 1005.77 1007.24 1009.20 1011.11 1013.38 1013.81 1015.16 1015.14 1015.16 1015.21 1014.92 1013.09 1012.71 1012.65 1012.79 1013.04
1017.82 1017.39 1017.02 1016.63 1016.24 1015.91 1015.06 1014.39 1013.78 1013.01 1012.12 1011.19 1010.52 1009.76 1009.28 1009.51 1009.77 1009.56 1009.73 1009.40 1009.21 1008.82 1008.01 1008.39 1007.49 1006.47 1006.22 1006.57 1006.37 1006.68 1007.46 1009.06 1010.94 1012.66 1013.51 1014.29 1014.96 1015.01 1015.11 1015.38 1014.37 1012.55 1012.26 1012.20 1012.40
1017.77 1017.28 1016.82 1016.49 1016.06 1015.75 1014.98 1012.18 1012.25 1012.12 1010.56 1010.20 1010.02 1009.56 1009.35 1009.06 1008.89 1009.25 1009.53 1008.69 1008.52 1007.84 1008.02 1008.14 1006.75 1006.68 1007.12 1007.27 1006.90 1006.84 1007.46 1008.92 1010.54 1011.60 1011.86 1013.14 1014.16 1014.39 1015.15 1015.40 1015.06 1012.70 1012.09 1011.68 1011.72
1017.68 1017.21 1016.68 1016.19 1015.67 1015.28 1013.25 1012.26 1012.04 1011.78 1010.08 1009.37 1009.01 1008.57 1008.48 1008.45 1008.13 1008.48 1008.76 1008.30 1007.93 1007.83 1007.51 1006.70 1006.46 1007.62 1007.35 1007.18 1006.93 1006.77 1007.09 1008.23 1008.90 1010.50 1010.77 1011.60 1012.37 1013.89 1014.75 1014.85 1014.98 1013.86 1011.88 1011.42 1011.29
1017.49 1017.08 1016.61 1015.94 1015.75 1013.47 1012.17 1012.12 1011.94 1011.84 1008.95 1008.68 1007.94 1008.19 1008.41 1007.88 1008.11 1008.57 1008.50 1008.06 1007.87 1007.49 1007.55 1006.96 1007.70 1007.56 1007.17 1006.77 1006.90 1006.14 1007.15 1007.99 1008.70 1008.77 1008.84 1010.38 1010.76 1011.78 1013.01 1013.83 1013.91 1013.29 1011.93 1011.00 1010.95
1017.27 1016.92 1016.54 1016.29 1014.67 1012.63 1012.24 1012.00 1011.82 1011.22 1008.16 1008.22 1007.71 1008.07 1007.81 1007.35 1007.89 1008.22 1008.39 1007.85 1007.38 1007.61 1007.77 1006.97 1007.40 1007.35 1006.99 1006.75 1006.99 1006.56 1007.43 1007.81 1008.22 1008.17 1008.79 1009.04 1009.35 1009.98 1011.09 1012.45 1012.66 1012.54 1011.62 1010.66 1010.43
1016.98 1016.68 1016.36 1015.35 1014.25 1012.42 1012.33 1012.05 1011.68 1009.66 1007.89 1007.55 1007.56 1007.36 1007.16 1007.22 1007.48 1007.92 1007.88 1007.85 1007.81 1007.52 1007.44 1007.03 1007.67 1007.38 1006.73 1007.23 1007.23 1007.49 1007.64 1007.98 1008.16 1007.95 1007.37 1008.14 1008.30 1007.53 1009.06 1009.42 1011.05 1011.57 1011.43 1010.72 1009.88
1016.64 1016.30 1016.13 1014.35 1012.11 1012.46 1012.16 1011.10 1009.21 1007.46 1008.22 1007.51 1007.22 1007.14 1006.60 1006.83 1007.28 1007.38 1007.37 1007.19 1006.74 1006.57 1006.32 1006.84 1006.92 1007.16 1007.45 1006.86 1007.11 1007.19 1006.91 1006.53 1006.45 1006.47 1006.16 1007.49 1007.60 1006.45 1006.88 1007.45 1007.97 1009.60 1010.21 1010.25 1010.41
1016.09 1015.66 1014.81 1013.49 1012.92 1012.66 1011.49 1009.74 1008.00 1007.90 1007.35 1007.58 1007.35 1007.19 1006.59 1006.96 1007.21 1007.34 1007.24 1006.92 1007.43 1007.00 1006.17 1005.76 1006.08 1006.59 1006.88 1006.26 1006.22 1006.56 1005.88 1005.35 1005.24 1005.08 1006.04 1007.51 1006.30 1005.64 1005.98 1006.30 1006.91 1007.50 1008.37 1009.41 1009.60
1015.42 1013.96 1012.91 1012.46 1012.86 1012.76 1010.74 1008.27 1007.32 1007.40 1007.54 1007.22 1007.09 1006.70 1006.75 1007.12 1007.10 1007.16 1007.13 1006.97 1007.46 1007.44 1006.65 1006.00 1005.73 1006.39 1006.66 1006.50 1006.39 1005.95 1006.35 1005.36 1005.88 1005.52 1005.91 1005.74 1006.08 1005.75 1005.56 1005.93 1006.52 1006.98 1007.65 1008.54 1008.77
1014.31 1012.33 1011.68 1012.25 1012.41 1011.51 1009.62 1007.94 1007.58 1007.79 1007.69 1007.35 1006.59 1006.99 1006.40 1006.78 1007.00 1006.99 1007.26 1007.86 1007.73 1008.03 1007.72 1007.11 1006.20 1006.06 1006.55 1006.80 1006.68 1006.13 1005.52 1005.66 1005.29 1005.57 1005.10 1005.52 1005.75 1005.01 1005.43 1005.84 1006.38 1007.42 1007.20 1007.64 1008.25
1013.70 1011.42 1011.83 1012.03 1011.92 1010.16 1008.32 1007.38 1007.72 1007.76 1007.79 1007.27 1007.03 1006.90 1006.94 1006.97 1007.09 1007.13 1007.34 1008.17 1008.27 1008.15 1008.10 1007.57 1006.95 1006.08 1006.34 1005.95 1004.88 1006.03 1005.58 1005.26 1005.07 1006.73 1005.25 1004.57 1005.29 1005.57 1006.37 1007.10 1007.31 1008.20 1007.90 1007.50 1008.52
1012.96 1010.93 1011.74 1011.83 1010.44 1009.11 1007.76 1007.82 1008.40 1007.42 1007.62 1007.32 1007.40 1007.19 1007.23 1007.58 1007.37 1007.55 1007.66 1008.12 1008.93 1008.59 1007.97 1008.31 1007.25 1006.06 1005.25 1005.91 1006.24 1005.56 1004.57 1004.54 1004.22 1004.57 1004.49 1005.14 1005.42 1006.55 1007.38 1007.84 1007.57 1008.31 1008.92 1009.22 1008.94
1012.60 1011.13 1011.49 1011.12 1008.87 1008.10 1008.09 1007.74 1007.67 1007.32 1007.14 1007.24 1007.21 1007.56 1007.88 1007.66 1007.93 1008.18 1008.42 1009.22 1009.28 1008.91 1008.76 1008.69 1007.52 1006.63 1005.89 1005.97 1006.18 1005.53 1005.18 1004.95 1004.28 1003.78 1004.15 1004.51 1005.43 1006.65 1007.59 1008.29 1008.50 1008.51 1009.34 1009.66 1009.63
1013.15 1010.85 1010.51 1010.25 1009.14 1007.83 1007.45 1007.23 1007.13 1007.52 1007.12 1007.21 1007.35 1007.78 1007.96 1007.98 1008.27 1008.14 1008.40 1009.06 1009.55 1009.48 1010.13 1009.82 1008.07 1007.60 1006.23 1006.89 1006.75 1005.43 1005.62 1005.43 1004.60 1003.96 1003.62 1004.36 1005.15 1005.93 1007.45 1008.58 1009.45 1009.91 1010.27 1010.63 1010.56
1013.17 1010.87 1010.99 1009.18 1008.64 1008.16 1007.83 1007.33 1006.98 1006.97 1007.33 1007.33 1007.53 1007.52 1007.66 1007.74 1007.99 1008.20 1008.39 1008.79 1009.46 1010.06 1010.04 1009.53 1008.65 1008.31 1007.83 1007.41 1007.16 1006.67 1005.93 1005.65 1005.20 1004.40 1004.55 1004.83 1005.67 1006.03 1007.71 1008.73 1009.82 1010.48 1010.65 1010.58 1009.94
1013.45 1012.14 1011.19 1009.95 1009.40 1008.56 1008.01 1007.45 1006.92 1006.57 1006.86 1006.86 1007.01 1007.28 1007.79 1007.93 1008.00 1008.05 1008.40 1008.73 1008.88 1009.55 1009.65 1009.82 1009.27 1009.11 1008.40 1007.71 1007.43 1006.83 1006.48 1006.38 1005.89 1005.61 1005.57 1005.72 1006.23 1007.30 1008.73 1009.64 1010.29 1010.72 1011.00 1010.97 1010.20
1014.44 1013.75 1012.66 1010.03 1009.03 1008.34 1007.31 1007.25 1007.03 1006.93 1006.95 1006.64 1006.93 1007.35 1007.81 1007.95 1008.20 1008.63 1008.80 1009.14 1009.35 1009.62 1009.52 1009.98 1009.43 1009.22 1008.21 1008.31 1008.02 1007.18 1006.55 1006.22 1006.01 1006.31 1006.18 1005.75 1007.03 1008.19 1009.09 1009.84 1011.21 1011.63 1011.95 1012.20 1011.76
Wind_Speed
8 8 8 8 9 9 9 9 8 8 9 10 10 10 10 11 15 8 7 4 3 3 5 7 7 6 6 2 2 3 1 7 7 3 5 1 8 6 2 11 6 5 8 20 19
8 8 9 9 10 10 10 10 10 10 10 10 10 10 10 10 9 8 5 2 2 3 8 11 8 8 5 3 4 4 3 4 9 7 4 4 6 7 6 10 8 12 18 21 19
9 9 9 10 10 10 10 11 10 10 10 10 11 10 10 12 7 7 4 7 6 6 4 5 4 8 5 3 3 3 4 6 10 10 6 5 5 1 8 8 12 15 22 21 17
10 10 10 11 11 10 11 11 11 11 10 10 10 11 11 8 3 6 3 10 8 6 7 6 8 9 4 2 3 4 5 4 9 7 6 4 2 2 4 5 5 19 22 21 18
11 10 12 12 12 12 11 10 11 11 11 10 10 10 8 7 8 8 6 9 10 8 7 7 9 4 3 1 2 3 5 8 10 11 10 8 9 5 5 7 16 19 18 17 15
11 11 12 13 13 13 12 12 11 11 10 9 9 11 7 5 4 5 10 11 7 8 6 8 4 2 1 1 4 8 5 8 11 12 6 7 4 4 7 13 16 17 16 15 13
12 11 12 12 13 14 14 13 12 10 8 8 7 7 6 9 5 8 5 3 6 3 6 2 2 8 2 7 9 10 10 9 6 10 5 10 2 4 6 12 16 16 14 13 11
12 12 13 14 14 14 15 14 12 8 7 7 7 7 7 5 3 4 6 6 5 3 2 2 4 5 7 6 7 6 5 6 1 6 7 6 12 5 3 9 16 16 13 12 12
13 14 13 15 15 14 15 15 8 5 6 5 8 7 9 6 6 4 4 2 6 5 4 3 6 4 7 11 10 6 1 5 6 4 8 2 3 12 7 7 16 15 15 13 13
13 14 14 15 15 12 13 13 5 8 7 6 5 7 6 7 5 5 4 5 5 10 8 9 7 9 7 9 8 10 6 9 8 4 14 5 6 3 12 6 15 16 15 14 14
15 15 14 15 13 12 11 6 7 7 8 6 6 3 5 7 7 6 6 7 8 10 9 10 10 12 12 5 5 2 8 10 10 9 6 6 8 5 7 9 14 14 17 16 15
15 15 16 16 14 11 8 4 6 6 2 3 1 3 3 3 10 9 7 5 8 9 6 9 13 6 2 5 3 4 3 10 9 4 3 8 7 9 12 8 12 17 15 15 16
17 15 18 16 14 5 5 5 1 5 7 6 1 0 5 9 6 9 9 5 6 8 11 10 6 7 9 9 9 7 4 6 4 7 4 3 8 8 5 9 14 16 17 16 16
17 16 16 17 6 3 2 2 6 6 6 7 7 6 7 4 6 2 4 3 4 4 5 5 6 9 8 9 9 12 6 4 7 10 6 3 1 1 12 15 18 19 16 16 17
18 16 14 8 9 4 5 7 1 5 2 3 6 4 4 3 10 7 3 6 4 7 9 8 10 9 9 11 7 5 4 6 5 3 6 2 6 9 7 10 17 19 19 17 19
18 15 14 6 4 4 5 4 6 9 5 4 3 5 8 6 4 8 7 3 1 4 6 1 2 5 3 2 9 4 6 5 6 6 9 1 8 3 8 14 18 16 23 19 17
19 15 8 4 3 3 5 6 8 3 3 3 1 5 3 7 7 6 7 8 4 8 7 7 11 6 7 7 9 14 13 8 9 8 4 3 7 6 1 8 17 23 23 24 19
21 10 8 5 4 6 6 8 4 2 1 3 1 5 3 4 4 5 6 8 3 7 3 4 12 12 11 12 8 14 15 8 7 4 3 4 4 5 4 6 14 11 21 18 23
19 5 4 3 3 5 8 9 1 2 1 1 6 7 7 6 2 5 2 4 4 6 8 4 4 5 5 5 11 11 9 11 9 6 6 4 6 9 2 8 8 9 17 20 23
5 4 3 2 6 7 8 3 4 1 1 4 4 3 5 5 7 6 5 3 2 4 6 4 6 6 8 7 9 12 6 10 9 6 6 6 4 6 7 4 8 8 12 21 25
5 6 5 5 5 6 8 4 5 5 4 3 3 5 2 3 4 2 3 5 1 2 4 7 7 10 6 10 5 9 11 12 7 10 1 4 4 7 1 3 3 6 9 11 20
5 7 5 4 8 3 8 5 1 7 5 3 3 3 5 2 4 3 3 4 3 4 5 5 8 8 6 6 5 13 12 15 9 10 5 6 0 5 4 1 7 10 5 2 12
4 2 5 5 8 8 5 8 4 8 9 6 5 4 2 4 4 4 3 4 1 3 6 4 5 9 13 11 9 9 7 12 11 15 10 6 2 5 7 7 4 6 5 7 9
5 5 5 6 4 9 10 11 10 5 9 6 3 4 6 7 5 2 5 5 1 2 3 4 9 9 13 8 9 4 8 7 13 12 11 9 13 6 4 8 6 5 6 6 13
2 2 5 7 10 10 5 2 11 8 8 10 6 9 7 4 4 6 5 5 7 7 4 7 10 6 12 10 9 10 10 7 12 10 9 5 8 4 2 1 4 3 4 3 8
5 4 2 4 3 10 8 11 12 11 11 15 9 11 7 7 5 6 6 4 5 7 3 4 7 7 12 11 11 14 12 9 9 7 11 5 9 3 2 4 2 5 8 7 2
2 2 6 5 8 10 10 13 12 8 10 10 12 8 9 7 2 2 2 3 2 6 6 7 8 7 10 4 9 12 15 13 12 5 9 10 7 4 4 3 4 5 7 7 9
Wind_Direction
352 350 348 344 338 335 333 333 334 333 331 330 330 324 322 321 294 229 245 37 22 16 222 164 198 199 216 165 124 130 225 169 148 170 129 51 124 87 102 143 150 109 151 142 138
347 344 345 340 336 334 332 332 331 333 330 326 322 319 321 322 274 240 83 18 288 178 200 193 185 195 201 164 173 257 25 118 145 134 185 143 112 116 144 136 130 124 111 139 155
347 348 344 338 333 331 331 330 331 328 324 321 316 316 315 304 246 80 54 180 197 241 242 231 211 229 234 213 128 60 40 113 136 137 188 113 126 136 162 161 160 156 145 152 161
348 345 342 334 329 328 328 329 328 327 321 318 313 312 313 256 129 52 30 167 185 242 197 189 197 213 239 168 89 126 61 115 146 151 142 108 342 72 161 29 148 151 151 154 167
350 345 339 330 332 329 326 323 321 321 315 310 310 310 275 203 52 21 138 157 177 196 192 194 199 215 205 98 152 147 117 123 147 163 128 132 48 330 109 127 132 143 151 158 171
350 346 340 337 334 329 326 321 316 312 304 298 304 299 253 112 21 86 127 153 167 196 179 208 207 322 107 87 313 104 109 111 148 141 116 121 16 300 97 143 145 156 161 164 168
348 346 342 338 335 328 323 319 310 299 287 283 292 285 254 72 104 123 151 122 167 230 182 179 209 238 187 132 136 138 125 104 143 156 149 122 290 208 131 165 158 169 173 168 170
343 342 337 334 329 331 323 315 304 282 260 264 269 261 72 139 140 193 148 124 172 183 277 255 265 274 251 113 165 199 178 218 60 171 131 167 207 226 204 184 172 174 174 176 175
341 338 337 332 329 324 322 312 291 210 219 229 237 270 96 138 212 175 220 135 155 171 170 249 247 266 180 207 187 194 191 121 115 43 133 160 169 225 213 245 190 183 178 181 180
340 334 333 332 330 327 317 305 149 177 207 227 259 229 152 77 111 141 150 165 149 156 161 198 220 205 215 227 258 128 141 85 124 83 98 195 229 232 225 276 219 191 185 187 189
340 332 331 335 328 324 295 213 211 173 207 1 14 25 110 90 159 171 163 156 151 187 177 198 216 209 196 48 34 75 84 88 101 147 116 162 184 223 196 190 259 213 193 191 196
337 331 333 332 324 315 267 345 40 358 290 134 294 262 235 276 129 153 192 194 194 172 168 181 225 108 198 180 191 174 134 98 105 144 216 173 153 185 189 204 232 235 198 207 192
337 333 334 328 322 252 299 30 346 308 257 127 129 36 122 212 120 139 211 153 172 171 202 211 130 152 197 189 218 212 254 155 76 161 151 159 161 168 202 189 225 247 234 204 201
336 335 334 324 288 355 215 38 297 238 222 108 156 121 168 199 113 107 233 302 193 143 198 223 128 201 209 222 232 249 173 182 155 238 28 321 291 239 173 200 213 215 226 222 213
333 331 329 329 323 252 39 327 212 229 265 81 98 96 154 266 141 149 181 221 184 153 238 109 186 193 220 235 218 306 160 207 224 268 257 137 256 126 163 200 210 220 226 233 210
328 326 322 200 224 312 307 300 240 231 99 113 134 173 185 164 126 142 188 218 44 210 216 218 133 245 299 169 235 141 167 171 230 271 241 125 289 171 170 204 192 221 223 231 235
326 317 268 298 11 337 297 236 236 299 156 90 34 210 175 138 136 183 183 186 240 222 181 164 194 165 227 181 173 199 187 193 219 202 303 119 263 45 353 189 187 190 214 225 219
324 305 176 275 307 300 240 238 261 76 171 112 114 171 183 172 122 153 168 169 178 284 264 258 174 189 182 235 189 214 229 263 247 229 222 137 242 80 263 266 185 215 202 205 220
312 190 211 144 231 239 248 234 153 155 59 254 176 222 143 153 258 199 11 64 55 350 331 280 171 164 195 190 241 166 233 267 280 168 279 126 238 243 202 179 178 209 183 206 210
297 240 120 40 173 226 244 278 139 55 278 236 245 268 202 133 207 230 188 89 122 14 317 67 262 167 128 223 238 266 276 211 230 222 226 101 285 291 191 96 150 203 249 195 201
239 232 81 166 235 229 229 174 167 162 233 268 196 195 242 178 282 196 108 116 355 93 312 310 269 147 186 210 225 181 230 247 123 313 121 214 80 21 42 15 169 210 243 194 202
290 231 120 218 216 226 218 196 71 175 192 186 278 300 261 196 223 241 262 19 40 331 302 37 299 275 238 77 308 288 282 222 236 232 229 329 149 83 59 63 200 169 136 262 244
297 333 165 255 226 206 161 184 226 202 201 192 210 272 231 226 242 244 193 97 55 292 3 16 251 264 233 175 196 241 206 263 278 288 260 280 116 107 102 94 40 138 100 334 295
269 212 162 217 293 282 189 204 209 204 238 210 163 211 205 209 210 235 229 146 162 355 12 277 280 279 295 2 337 221 211 245 255 246 249 213 261 143 120 119 107 106 131 198 242
240 100 358 192 206 225 230 220 213 189 223 201 194 219 208 218 219 229 235 189 191 139 214 277 276 294 284 286 277 275 284 240 257 265 287 29 265 281 201 80 57 31 41 181 220
306 316 186 288 235 219 183 216 234 210 191 194 225 199 212 246 279 310 253 226 268 167 235 246 283 289 280 263 266 259 240 248 266 281 272 256 275 41 165 184 70 27 15 7 309
36 236 281 148 205 221 211 231 225 228 212 237 212 192 210 228 305 35 17 360 26 287 282 287 287 266 279 34 279 252 249 237 258 277 286 270 25 160 179 177 47 28 39 9 354